Location: *
(51.1248°S, 108.4023°W)
Time: 20:44:04
(UTC+00:00)

USA 281 - Pass Details

Date: 25 October 2021
Orbit: 1078 x 1081 km, 106.0° (Epoch: 25 November)

Event Time Altitude Azimuth Distance (km) Brightness Sun altitude
Exits shadow 02:27:49 - 39° (NE) 3,811 5.5 -4.1°
Reaches altitude 10° 02:30:09 10° 40° (NE) 2,930 4.9 -4.4°
Maximum altitude 02:36:42 71° 122° (ESE) 1,152 3.3 -5.3°
Drops below altitude 10° 02:43:19 10° 204° (SSW) 2,959 6.4 -6.3°
Sets 02:45:52 0° 206° (SSW) 3,921 7.2 -6.6°
